Back to catalog

THOR ABLESTAR DEB

AliveLEO
NORAD 261·DEBRIS·🇺🇸 United States

Launched Jun 29, 1961 from Cape Canaveral Space Force Station

Loading…

Next Passes (next 24 hours)

TLE

FreshSource: Space-Track

Epoch: Sep 7, 2026, 05:50 UTC

1 00261U 61015CH  26250.24307225  .00000039  00000-0  76322-4 0  9998
2 00261  66.6802 207.5587 0095179 277.3161  81.7112 14.01070209323586

Track THOR ABLESTAR DEB in real time with AllMySat

Download on the App Store